TimeCDT,TemperatureF,Dew PointF,Humidity,Sea Level PressureIn,VisibilityMPH,Wind Direction,Wind SpeedMPH,Gust SpeedMPH,PrecipitationIn,Events,Conditions,WindDirDegrees,DateUTC
1:52 AM,34.0,23.0,64,30.30,10.0,Calm,Calm,-,N/A,,Clear,0,2013-04-03 06:52:00
2:52 AM,34.0,24.1,67,30.32,10.0,Calm,Calm,-,N/A,,Clear,0,2013-04-03 07:52:00
3:52 AM,28.9,24.1,82,30.31,10.0,Calm,Calm,-,N/A,,Clear,0,2013-04-03 08:52:00
4:52 AM,28.9,23.0,78,30.32,10.0,Calm,Calm,-,N/A,,Clear,0,2013-04-03 09:52:00
5:52 AM,30.9,24.1,76,30.32,10.0,Calm,Calm,-,N/A,,Clear,0,2013-04-03 10:52:00
6:52 AM,32.0,25.0,75,30.32,10.0,Calm,Calm,-,N/A,,Clear,0,2013-04-03 11:52:00
7:52 AM,34.0,25.0,70,30.35,10.0,East,3.5,-,N/A,,Clear,90,2013-04-03 12:52:00
8:52 AM,37.0,26.1,65,30.37,10.0,East,6.9,-,N/A,,Clear,90,2013-04-03 13:52:00
9:52 AM,41.0,26.1,55,30.38,10.0,East,6.9,-,N/A,,Scattered Clouds,100,2013-04-03 14:52:00
10:52 AM,45.0,21.9,40,30.38,10.0,SSE,10.4,-,N/A,,Partly Cloudy,150,2013-04-03 15:52:00
11:52 AM,46.0,23.0,40,30.37,10.0,SSE,11.5,-,N/A,,Partly Cloudy,160,2013-04-03 16:52:00
12:52 PM,46.9,23.0,39,30.36,10.0,South,5.8,-,N/A,,Clear,170,2013-04-03 17:52:00
1:52 PM,46.9,21.9,37,30.34,6.0,SE,6.9,-,N/A,,Haze,140,2013-04-03 18:52:00
2:24 PM,46.4,21.2,37,30.31,2.5,South,5.8,-,N/A,,Haze,170,2013-04-03 19:24:00
2:34 PM,46.4,23.0,40,30.30,6.0,SSE,5.8,-,N/A,,Haze,150,2013-04-03 19:34:00
2:52 PM,46.9,23.0,39,30.32,8.0,SSE,4.6,-,N/A,,Scattered Clouds,150,2013-04-03 19:52:00
3:52 PM,46.9,23.0,39,30.31,10.0,SSE,4.6,-,N/A,,Overcast,160,2013-04-03 20:52:00
4:52 PM,48.0,24.1,39,30.29,10.0,Variable,3.5,-,N/A,,Mostly Cloudy,0,2013-04-03 21:52:00
5:52 PM,48.0,24.1,39,30.27,10.0,ENE,5.8,-,N/A,,Overcast,70,2013-04-03 22:52:00
6:52 PM,46.9,24.1,41,30.28,10.0,Calm,Calm,-,N/A,,Overcast,0,2013-04-03 23:52:00
7:52 PM,46.9,24.1,41,30.27,10.0,Calm,Calm,-,N/A,,Overcast,0,2013-04-04 00:52:00
8:52 PM,44.1,27.0,51,30.27,10.0,WSW,4.6,-,N/A,,Overcast,250,2013-04-04 01:52:00
9:52 PM,41.0,27.0,57,30.28,10.0,WNW,4.6,-,N/A,,Mostly Cloudy,290,2013-04-04 02:52:00
10:52 PM,37.0,27.0,67,30.29,10.0,Calm,Calm,-,N/A,,Clear,0,2013-04-04 03:52:00
11:52 PM,34.0,26.1,73,30.28,10.0,Calm,Calm,-,N/A,,Mostly Cloudy,0,2013-04-04 04:52:00